Hourly Data Report for May 22, 2018

DRYDEN REGIONAL
ONTARIO
Current Station Operator: NAVCAN

49°49'39.000" N
92°44'39.000" W
412.70 m
6032125
71527
YHD

Download Data

Hourly Data (May 2018)
Hourly Data Report for May 22, 2018
TIME
LST
Temp Definition
°C
Dew Point Definition
°C
Rel Hum Definition
%
Precip. Amount Definition
mm

Wind Dir Definition
10's deg

Wind Spd Definition
km/h
Visibility Definition
km
Stn Press Definition
kPa
Hmdx Definition


Wind Chill Definition


Weather Definition


00:00 14.4 1.7 42 0.0 19 5 16.1 96.53     LegendNANA
01:00 13.7 2.4 46 0.0 24 8 16.1 96.53     LegendNANA
02:00 13.1 3.8 53 0.0 21 13 16.1 96.54     LegendNANA
03:00 10.5 5.3 70 0.0 20 15 16.1 96.57     LegendNANA
04:00 10.3 5.1 70 0.0 20 15 16.1 96.58     LegendNANA
05:00 10.4 5.4 71 0.0 21 15 16.1 96.62     LegendNANA
06:00 11.2 6.4 72 0.0 22 11 16.1 96.68     LegendNANA
07:00 14.1 7.4 64 0.0 24 11 16.1 96.74     LegendNANA
08:00 17.1 8.6 57 0.0 29 9 16.1 96.72     LegendNANA
09:00 19.9 8.6 48 0.0 25 8 16.1 96.70     LegendNANA
10:00 22.4 6.5 35 0.0 22 11 16.1 96.70     LegendNANA
11:00 23.9 0.7 21 0.0 24 8 16.1 96.70     LegendNANA
12:00 25.0 2.2 22 0.0 26 15 16.1 96.68     LegendNANA
13:00 25.0 0.8 20 0.0 23 18 16.1 96.68     LegendNANA
14:00 25.1 1.8 22 0.0 12 5 16.1 96.66     LegendNANA
15:00 26.4 2.7 21 0.0 25 24 16.1 96.66 25   LegendNANA
16:00 26.0 3.1 22 0.0 24 17 16.1 96.66 25   LegendNANA
17:00 25.6 3.4 23 0.0 24 13 16.1 96.64     LegendNANA
18:00 25.4 3.5 24 0.0 27 13 16.1 96.66     LegendNANA
19:00 24.2 4.3 27 0.0 26 9 16.1 96.68     LegendNANA
20:00 21.2 5.7 36 0.0 23 11 16.1 96.71     LegendNANA
21:00 20.0 5.0 37 0.0 24 13 16.1 96.76     LegendNANA
22:00 18.4 5.7 43 0.0 23 9 16.1 96.80     LegendNANA
23:00 18.1 5.0 42 0.0 25 8 16.1 96.81     LegendNANA

Notes on Data Quality.

Legend

  • E = Estimated
  • M = Missing
  • NA = Not Available*
  • [empty] = Indicates an unobserved value
Date modified: